Regional Weather Roundup
Issued by NWS

Home | Current Version | Previous Version | Graphics & Text | Print | Product List | Glossary On
Versions: 1 2 3 4 5 6 7 8 9 10 11 12 13 14 15 16 17 18 19 20 21 22 23 24 25 26 27 28 29 30 31 32 33 34 35 36 37 38 39 40 41 42 43 44 45 46 47 48 49 50
641
ASUS43 KFSD 010410
RWRSD

WEATHER ROUNDUP FOR SOUTH DAKOTA
NATIONAL WEATHER SERVICE SIOUX FALLS SD
1100 PM CDT WED AUG 31 2016

NOTE: "FAIR" INDICATES FEW OR NO CLOUDS BELOW 12,000 FEET WITH NO
SIGNIFICANT WEATHER AND/OR OBSTRUCTIONS TO VISIBILITY.


SDZ001>005-009-010-012>017-010500-
NORTHWEST AND NORTH CENTRAL SOUTH DAKOTA

CITY           SKY/WX    TMP DP  RH WIND       PRES   REMARKS
BUFFALO          N/A     73  54  51 SE20      30.05R
FAITH            N/A     70  58  65 SE12      30.15R
MOBRIDGE       CLEAR     71  63  75 E13       30.14R
$$

SDZ012>016-024>037-041>051-057-063-072>074-010500-
SOUTHWEST AND SOUTH CENTRAL SOUTH DAKOTA

CITY           SKY/WX    TMP DP  RH WIND       PRES   REMARKS
RAPID CTY ARPT CLEAR     63  54  72 SE7       30.17R
PIERRE         CLEAR     72  60  66 SE10      30.15R
CUSTER         PTCLDY    64  51  62 SE6G18    30.30R
ELLSWORTH AFB  CLEAR     69  55  62 S10       30.16R
PHILIP         CLEAR     67  59  75 E6        30.16R
PINE RIDGE     CLEAR     71  56  58 SE16G24   30.20S
WINNER         FAIR      67  58  72 SE8       30.20R
$$

SDZ004>011-016>023-039-040-010500-
NORTHEAST SOUTH DAKOTA

CITY           SKY/WX    TMP DP  RH WIND       PRES   REMARKS
ABERDEEN       CLEAR     66  59  78 E9        30.18S
WATERTOWN      CLEAR     67  58  72 SE5       30.23R
BROOKINGS      PTCLDY    66  59  78 E5          N/A
SISSETON         N/A     62  58  86 CALM      30.20S
$$

SDZ017-020-022-023-036>040-048>070-010500-
SOUTHEAST SOUTH DAKOTA

CITY           SKY/WX    TMP DP  RH WIND       PRES   REMARKS
SIOUX FALLS    PTCLDY    66  60  81 SE5       30.22R
HURON          CLEAR     68  59  73 SE7       30.19R
CHAMBERLAIN    CLEAR     69  61  76 SE9       30.19S
MITCHELL       CLEAR     65  60  84 SE5       30.19S
YANKTON        CLEAR     64  57  77 E3        30.20R
$$

ABBREVIATIONS USED IN REMARKS
   TC - TEMPERATURE IN CELSIUS
  WCI - WIND CHILL INDEX
   HX - HEAT INDEX
  VSB - VISIBILITY





USA.gov is the U.S. government's official web portal to all federal, state and local government web resources and services.